TimeMST,TemperatureF,Dew PointF,Humidity,Sea Level PressureIn,VisibilityMPH,Wind Direction,Wind SpeedMPH,Gust SpeedMPH,PrecipitationIn,Events,Conditions,WindDirDegrees,DateUTC
12:53 AM,34.0,18.0,52,29.89,10.0,SW,20.7,27.6,N/A,,Clear,220,2011-12-11 07:53:00
1:53 AM,34.0,18.0,52,29.88,10.0,SW,23.0,28.8,N/A,,Clear,220,2011-12-11 08:53:00
2:53 AM,32.0,18.0,56,29.89,10.0,SW,19.6,-,N/A,,Clear,230,2011-12-11 09:53:00
3:53 AM,28.9,17.1,61,29.91,10.0,ENE,3.5,-,N/A,,Clear,60,2011-12-11 10:53:00
4:53 AM,30.9,16.0,54,29.90,10.0,WSW,5.8,-,N/A,,Clear,250,2011-12-11 11:53:00
5:53 AM,21.9,14.0,72,29.94,10.0,Calm,Calm,-,N/A,,Clear,0,2011-12-11 12:53:00
6:53 AM,12.0,9.0,88,29.99,10.0,Calm,Calm,-,N/A,,Clear,0,2011-12-11 13:53:00
7:53 AM,15.8,12.2,86,29.87,10.0,South,4.6,-,N/A,,Clear,170,2011-12-11 14:53:00
8:53 AM,25.0,18.0,75,29.96,10.0,Calm,Calm,-,N/A,,Clear,0,2011-12-11 15:53:00
9:53 AM,36.0,18.0,48,29.93,10.0,WSW,4.6,-,N/A,,Clear,250,2011-12-11 16:53:00
10:53 AM,41.0,19.0,41,29.91,10.0,Calm,Calm,-,N/A,,Clear,0,2011-12-11 17:53:00
11:53 AM,42.1,19.0,40,29.88,10.0,West,6.9,-,N/A,,Clear,280,2011-12-11 18:53:00
12:53 PM,42.1,19.0,40,29.88,10.0,West,5.8,-,N/A,,Clear,280,2011-12-11 19:53:00
1:53 PM,42.1,19.0,40,29.88,10.0,NW,6.9,-,N/A,,Clear,310,2011-12-11 20:53:00
2:53 PM,42.1,21.9,45,29.89,10.0,North,6.9,-,N/A,,Clear,350,2011-12-11 21:53:00
3:53 PM,36.0,19.9,52,29.93,10.0,NNW,3.5,-,N/A,,Clear,330,2011-12-11 22:53:00
4:53 PM,21.0,17.1,85,29.99,10.0,West,5.8,-,N/A,,Clear,270,2011-12-11 23:53:00
5:53 PM,19.0,16.0,88,30.02,10.0,Calm,Calm,-,N/A,,Clear,0,2011-12-12 00:53:00
6:53 PM,19.9,16.0,85,30.08,10.0,NW,3.5,-,N/A,,Clear,320,2011-12-12 01:53:00
7:53 PM,17.1,14.0,88,30.08,10.0,WSW,3.5,-,N/A,,Clear,240,2011-12-12 02:53:00
8:53 PM,18.0,15.1,88,30.05,10.0,SSW,3.5,-,N/A,,Clear,210,2011-12-12 03:53:00
9:53 PM,19.0,17.1,92,30.03,10.0,SW,3.5,-,N/A,,Clear,230,2011-12-12 04:53:00
10:53 PM,16.0,14.0,92,30.03,10.0,SSW,3.5,-,N/A,,Clear,200,2011-12-12 05:53:00
11:53 PM,14.0,12.0,92,30.05,10.0,Calm,Calm,-,N/A,,Clear,0,2011-12-12 06:53:00